Content
SEND FEEDBACK

Daily
Averages
Monthly
Summary
United Kingdom

BOVINGDON, ENGLAND


Home > Europe > United Kingdom > England
Elevation: 535 feet     Latitude: 51 43N     Longitude: 000 32W

WEATHER
 
SELECT A DAY
Number of Records: 296,027;   Date Range: 7/1/96 - 12/16/14
 
SHARE

PRINT THIS DATA

[ ← Previous Day ]
WEATHER ALMANAC - JULY 22, 2014
[ Next Day → ]
[ °C ]   °F
Weather ElementAverageHighLow
Temperature65 °F75.2 °F (1:20 pm)57.2 °F (3:20 am)
Dewpoint58.6 °F60.8 °F (5:20 pm)57.2 °F (1:20 am)
Humidity81.8 %100 % (3:20 am)53 % (2:20 pm)
Barometer30.21 in30.24 in (9:20 am)30.18 in (12:50 am)
Wind Speed9.7 mph15 mph (3:20 pm)
Weather ElementAverage
Visibility3.9 mi
Wind DirectionSSE (155.3 °)

Weather ElementTotal
Precipitation---
Cooling Degree Days1.2 (Base 65)
Growing Degree Days16.2 (Base 50)
Averaged from 47 records on July 22, 2014
WEATHER CONDITIONS BREAKOUT
WIND DIRECTION BREAKOUT
WEATHER BY HOUR - JULY 22, 2014
[ °C ]   °F
Local TimeTemperatureDewpointHumidityBarometerVisibilityWind DirectionWind SpeedGust SpeedPrecipitationEventsConditions
12:50 AM60.8 °F59.0 °F94 %30.18 inNNE (30°)3.5 mphClear
1:20 AM59.0 °F57.2 °F94 %30.18 inVariable3.5 mphClear
1:50 AM59.0 °F57.2 °F94 %30.18 inVariable2.3 mphClear
2:20 AM59.0 °F57.2 °F94 %30.18 inNNW (340°)5.8 mphClear
2:50 AM59.0 °F57.2 °F94 %30.18 in0.4 miNorth (350°)5.8 mphOvercast
3:20 AM57.2 °F57.2 °F100 %30.18 in0.4 miNorth (350°)5.8 mphFogFog
3:50 AM57.2 °F57.2 °F100 %30.18 in0.2 miNorth (350°)6.9 mphFogFog
4:20 AM57.2 °F57.2 °F100 %30.18 in0.1 miNorth (350°)5.8 mphFogFog
4:50 AM57.2 °F57.2 °F100 %30.18 in0.1 miNorth (360°)4.6 mphFogFog
5:20 AM57.2 °F57.2 °F100 %30.21 in0.2 miNorth (350°)6.9 mphFogFog
5:50 AM57.2 °F57.2 °F100 %30.21 in0.2 miNorth (350°)8.1 mphFogFog
6:20 AM57.2 °F57.2 °F100 %30.21 in0.6 miNorth (350°)6.9 mphOvercast
6:50 AM57.2 °F57.2 °F100 %30.21 in1.4 miNorth (360°)6.9 mphMostly Cloudy
7:20 AM57.2 °F57.2 °F100 %30.21 in0.9 miNorth (10°)6.9 mphOvercast
7:50 AM57.2 °F57.2 °F100 %30.21 in2.8 miNorth (360°)10.4 mphOvercast
8:20 AM59.0 °F57.2 °F94 %30.21 in3.1 miNorth (360°)10.4 mphOvercast
8:50 AM59.0 °F57.2 °F94 %30.21 in3.7 miNorth (360°)10.4 mphMostly Cloudy
9:20 AM60.8 °F57.2 °F88 %30.24 in5.0 miNorth (350°)10.4 mphMostly Cloudy
9:50 AM62.6 °F57.2 °F82 %30.24 in5.6 miNorth (360°)10.4 mphMostly Cloudy
10:20 AM64.4 °F59.0 °F83 %30.24 in6.2 miNNE (20°)9.2 mphScattered Clouds
10:50 AM66.2 °F59.0 °F78 %30.21 in6.2 miNorth (360°)10.4 mphPartly Cloudy
11:20 AM68.0 °F59.0 °F73 %30.21 in6.2 miNorth (360°)12.7 mphPartly Cloudy
11:50 AM69.8 °F59.0 °F68 %30.21 in6.2 miNorth (10°)12.7 mphPartly Cloudy
12:20 PM73.4 °F59.0 °F61 %30.21 in6.2 miNorth (360°)12.7 mphPartly Cloudy
12:50 PM73.4 °F59.0 °F61 %30.21 in6.2 miNorth (360°)13.8 mphPartly Cloudy
1:20 PM75.2 °F59.0 °F57 %30.21 in6.2 miNNE (30°)12.7 mphPartly Cloudy
1:50 PM75.2 °F59.0 °F57 %30.21 in6.2 miNNE (30°)12.7 mphPartly Cloudy
2:20 PM75.2 °F57.2 °F53 %30.21 inNorth (10°)13.8 mphClear
2:50 PM75.2 °F57.2 °F53 %30.21 in6.2 miNorth (10°)12.7 mphScattered Clouds
3:20 PM75.2 °F59.0 °F57 %30.21 in6.2 miNE (40°)15.0 mphScattered Clouds
3:50 PM75.2 °F59.0 °F57 %30.21 in6.2 miNE (40°)12.7 mphPartly Cloudy
4:20 PM75.2 °F59.0 °F57 %30.21 inNNE (20°)12.7 mphClear
4:50 PM75.2 °F59.0 °F57 %30.21 in6.2 miNNE (20°)12.7 mph
5:20 PM73.4 °F60.8 °F65 %30.18 inNE (40°)12.7 mphClear
5:50 PM73.4 °F60.8 °F65 %30.18 inNNE (20°)11.5 mphClear
6:20 PM73.4 °F60.8 °F65 %30.21 inNNE (20°)11.5 mphClear
6:50 PM71.6 °F60.8 °F69 %30.21 inNNE (20°)11.5 mphClear
7:20 PM69.8 °F60.8 °F73 %30.21 inNorth (10°)10.4 mphClear
7:50 PM68.0 °F60.8 °F78 %30.21 inNNE (20°)10.4 mphClear
8:20 PM66.2 °F60.8 °F83 %30.21 inNNE (20°)9.2 mphClear
8:50 PM64.4 °F60.8 °F88 %30.21 inNNE (20°)9.2 mphClear
9:20 PM62.6 °F60.8 °F94 %30.24 inNorth (10°)8.1 mphClear
9:50 PM62.6 °F59.0 °F88 %30.24 inNNE (20°)9.2 mphClear
10:20 PM60.8 °F59.0 °F94 %30.24 in6.2 miNNE (30°)10.4 mphMostly Cloudy
10:50 PM60.8 °F59.0 °F94 %30.24 in5.6 miNNE (20°)11.5 mphMostly Cloudy
11:20 PM60.8 °F59.0 °F94 %30.24 in3.7 miNNE (20°)10.4 mphOvercast
11:50 PM60.8 °F59.0 °F94 %30.24 in5.0 miNNE (20°)10.4 mphOvercast
Hourly data recorded from EGGW, located miles away from Bovingdon, England







STORIES FROM OUR PARTNERS